Location: Newark
(44.4156°N, 12.1972°E)
Time: 09:53:56
(UTC+00:00)

STARLINK-1079 - Pass Details

Date: 01 February 2020
Orbit: 348 x 351 km, 53.0° (Epoch: 18 February)

Event Time Altitude Azimuth Distance (km) Brightness Sun altitude
Rises 17:30:48 0° 301° (WNW) 2,161 7.5 -12.9°
Reaches altitude 10° 17:32:51 10° 296° (WNW) 1,316 6.4 -13.3°
Maximum altitude 17:35:42 53° 218° (SW) 436 3.4 -13.8°
Enters shadow 17:38:09 13° 142° (SE) 1,140 5.0 -14.2°
